User: anonymous   Login
Location: Pacheco
(37.9835°N, 122.0752°W)
Time: 20:59:48
(UTC+00:00)
Language:

Cosmos 1975 - Orbit

View from above orbital plane
View from above orbital plane
View from above satellite
View from above satellite

Ground track
Ground track

The orbit data is extracted from the following two-line orbital elements,

1 19573U 88093A   24165.58047568  .00005177  00000-0  27990-3 0  9994
2 19573  82.5265  27.6551 0013258 227.8291 132.1815 15.14401821922978
Epoch (UTC): 13 June 2024 13:55:53
Eccentricity: 0.0013258
inclination: 82.5265°
perigee height: 513 km
apogee height: 532 km
right ascension of ascending node: 27.6551°
argument of perigee: 227.8291°
revolutions per day: 15.14401821
mean anomaly at epoch: 132.1815°
orbit number at epoch: 92297

The dashed part of the orbit path shows where the satellite is in the earth's shadow,  

DLR